[TLELIST] Archives

 

[TLELIST] Current TLEs

March 21st 2023 PDT

HST 1 20580U 90037B 23079.88417470 .00005824 00000-0 31619-3 0 9996 2 20580 28.4694 135.2198 0003006 142.0112 25.2081 15.12417620608077 ISS (ZARYA) 1 25544U 98067A 23080.38988954 .00015304 00000-0 28187-3 0 9999 2 25544 51.6415 43.5078 0006133 115.2181 346.9578 15.49345862388179 CXO 1 25867U 99040B 23080.70076181 .00000923 00000-0 00000-0 0 9997 2 25867 38.6737 207.8868 9026344 253.4689 0.4032 0.37809169 12856 ...Continue Reading

[TLELIST] Current TLEs

March 21st 2023 PDT

HST 1 20580U 90037B 23079.88417470 .00005824 00000-0 31619-3 0 9996 2 20580 28.4694 135.2198 0003006 142.0112 25.2081 15.12417620608077 ISS (ZARYA) 1 25544U 98067A 23080.38988954 .00015304 00000-0 28187-3 0 9999 2 25544 51.6415 43.5078 0006133 115.2181 346.9578 15.49345862388179 CXO 1 25867U 99040B 23080.70076181 .00000923 00000-0 00000-0 0 9997 2 25867 38.6737 207.8868 9026344 253.4689 0.4032 0.37809169 12856 ...Continue Reading

[TLELIST] Current TLEs

March 20th 2023 PDT

HST 1 20580U 90037B 23079.26785244 .00005758 00000-0 31257-3 0 9999 2 20580 28.4693 139.3154 0003010 135.8096 269.0571 15.12410707608249 ISS (ZARYA) 1 25544U 98067A 23079.42898256 .00015754 00000-0 29018-3 0 9990 2 25544 51.6412 48.2628 0006159 112.0657 27.0298 15.49317299388023 CXO 1 25867U 99040B 23080.70076181 .00000923 00000-0 00000-0 0 9997 2 25867 38.6737 207.8868 9026344 253.4689 0.4032 0.37809169 12856 ...Continue Reading

[TLELIST] Current TLEs

March 20th 2023 PDT

HST 1 20580U 90037B 23079.26785244 .00005758 00000-0 31257-3 0 9999 2 20580 28.4693 139.3154 0003010 135.8096 269.0571 15.12410707608249 ISS (ZARYA) 1 25544U 98067A 23079.42898256 .00015754 00000-0 29018-3 0 9990 2 25544 51.6412 48.2628 0006159 112.0657 27.0298 15.49317299388023 CXO 1 25867U 99040B 23080.70076181 .00000923 00000-0 00000-0 0 9997 2 25867 38.6737 207.8868 9026344 253.4689 0.4032 0.37809169 12856 ...Continue Reading

[TLELIST] Current TLEs

March 19th 2023 PDT

HST 1 20580U 90037B 23077.90401484 .00005112 00000-0 27649-3 0 9993 2 20580 28.4693 148.3781 0003059 122.8558 41.6335 15.12394587607773 ISS (ZARYA) 1 25544U 98067A 23078.39998922 .00017686 00000-0 32499-3 0 9999 2 25544 51.6406 53.3563 0006222 109.9442 46.1828 15.49290675387869 CXO 1 25867U 99040B 23080.70071035 .00000923 00000-0 00000+0 0 9999 2 25867 38.6756 207.8928 9026323 253.4614 0.3970 0.37811020 24008 ...Continue Reading

[TLELIST] Current TLEs

March 19th 2023 PDT

HST 1 20580U 90037B 23077.90401484 .00005112 00000-0 27649-3 0 9993 2 20580 28.4693 148.3781 0003059 122.8558 41.6335 15.12394587607773 ISS (ZARYA) 1 25544U 98067A 23078.39998922 .00017686 00000-0 32499-3 0 9999 2 25544 51.6406 53.3563 0006222 109.9442 46.1828 15.49290675387869 CXO 1 25867U 99040B 23080.70071035 .00000923 00000-0 00000+0 0 9999 2 25867 38.6756 207.8928 9026323 253.4614 0.3970 0.37811020 24008 ...Continue Reading

[TLELIST] Current TLEs

March 18th 2023 PDT

HST 1 20580U 90037B 23076.91420861 .00005555 00000-0 30140-3 0 9994 2 20580 28.4691 154.9551 0003077 113.4264 51.2506 15.12384748607628 ISS (ZARYA) 1 25544U 98067A 23077.36925388 .00019081 00000-0 35032-3 0 9998 2 25544 51.6407 58.4577 0006060 105.8710 57.6734 15.49259083387708 CXO 1 25867U 99040B 23078.05889295 .00001071 00000-0 00000-0 0 9995 2 25867 38.7043 208.1431 9022752 253.2788 0.6689 0.37812732 12843 ...Continue Reading

[TLELIST] Current TLEs

March 17th 2023 PDT

HST 1 20580U 90037B 23075.92196238 .00006256 00000-0 34087-3 0 9995 2 20580 28.4690 161.5478 0003091 103.9377 47.6523 15.12373897607478 ISS (ZARYA) 1 25544U 98067A 23076.33355252 .00020713 00000-0 37999-3 0 9999 2 25544 51.6407 63.5846 0006095 100.8446 42.5157 15.49223261387546 CXO 1 25867U 99040B 23078.05889295 .00001071 00000-0 00000-0 0 9995 2 25867 38.7043 208.1431 9022752 253.2788 0.6689 0.37812732 12843 ...Continue Reading

[TLELIST] Current TLEs

March 16th 2023 PDT

HST 1 20580U 90037B 23075.00175214 .00007494 00000-0 41047-3 0 9994 2 20580 28.4689 167.6625 0003099 94.9386 76.5834 15.12361923607602 ISS (ZARYA) 1 25544U 98067A 23075.43289200 .00020037 00000-0 36839-3 0 9999 2 25544 51.6403 68.0422 0006068 97.4505 59.4848 15.49183853387400 CXO 1 25867U 99040B 23075.41392744 .00001121 00000-0 00000-0 0 9996 2 25867 38.7399 208.4399 9021198 253.0549 0.4930 0.37816239 12820 ...Continue Reading

[TLELIST] Current TLEs

March 16th 2023 PDT

HST 1 20580U 90037B 23075.00175214 .00007494 00000-0 41047-3 0 9994 2 20580 28.4689 167.6625 0003099 94.9386 76.5834 15.12361923607602 ISS (ZARYA) 1 25544U 98067A 23075.43289200 .00020037 00000-0 36839-3 0 9999 2 25544 51.6403 68.0422 0006068 97.4505 59.4848 15.49183853387400 CXO 1 25867U 99040B 23075.41392744 .00001121 00000-0 00000-0 0 9996 2 25867 38.7399 208.4399 9021198 253.0549 0.4930 0.37816239 12820 ...Continue Reading
  • This mailing list is a public mailing list - anyone may join or leave, at any time.
  • This mailing list is announce-only.

International Space Station (ISS) / Hubble Space Telescope (HST) / Chandra X-Ray Observatory Orbital Data via EMAIL

Privacy Policy:

Private list